Location: Newark
(0.5300°S, 127.4800°E)
Time: 00:54:46
(UTC+00:00)

Vanguard 3 - Visible Passes

Search period start: 21 September 2019 00:00
Search period end: 01 October 2019 00:00
Orbit: 508 x 3263 km, 33.4° (Epoch: 20 September)

Date Brightness Start Highest point End Pass type
(mag) Time Alt. Az. Time Alt. Az. Time Alt. Az.
21 Sep 10.2 17:48:58 18° ESE 17:48:58 18° ESE 17:52:11 10° E visible
21 Sep 8.5 19:53:35 34° WSW 19:57:41 75° NW 20:11:22 10° NE visible
22 Sep 9.8 09:39:42 10° W 09:46:47 21° SW 09:51:45 10° S visible
22 Sep 8.5 18:44:13 58° ESE 18:44:13 58° ESE 18:53:54 10° ENE visible
22 Sep 9.5 20:48:55 10° W 20:57:06 40° NNW 21:10:47 10° NE visible
23 Sep 10.4 17:34:52 13° E 17:34:52 13° E 17:35:59 10° E visible
23 Sep 8.2 19:39:28 48° W 19:41:33 61° NNW 19:53:52 10° NE visible
24 Sep 9.0 18:30:04 42° ENE 18:30:04 42° ENE 18:36:57 10° ENE visible
24 Sep 9.4 20:34:40 14° W 20:41:06 32° NNW 20:52:55 10° NE visible
25 Sep 8.4 19:25:16 47° NW 19:25:34 47° NNW 19:36:23 10° NE visible
26 Sep 9.6 18:15:50 26° NE 18:15:50 26° NE 18:20:00 10° NE visible
26 Sep 9.4 20:20:26 16° WNW 20:25:15 25° NNW 20:35:00 10° NNE visible
27 Sep 8.9 19:10:58 34° N 19:10:58 34° N 19:18:52 10° NE visible
28 Sep 10.2 18:01:29 15° NE 18:01:29 15° NE 18:03:04 10° NE visible
28 Sep 9.5 20:06:04 15° NW 20:09:32 19° NNW 20:16:57 10° NNE visible
29 Sep 9.5 18:56:33 22° N 18:56:33 22° N 19:01:19 10° NNE visible
30 Sep 9.8 19:51:35 12° NNW 19:53:54 14° NNW 19:58:33 10° NNE visible
